This is the latest recevied weather packets stored in our database for station/object N8AMF. If no packets are shown the sender has not sent any weather packets the latest 10 day(s).
| Time | Temp. | Humidity | Pressure | Rain* | Wind** | Luminosity | Snow |
|---|---|---|---|---|---|---|---|
| 1778154466 | 7.22° C | 81% | 1012.1 hPa | 0 mm | - | 105 W/m² | - |
| 1778154164 | 7.22° C | 81% | 1012.1 hPa | 0 mm | - | 96 W/m² | - |
| 1778153861 | 7.22° C | 81% | 1012.1 hPa | 0 mm | - | 86 W/m² | - |
| 1778153558 | 7.22° C | 82% | 1012.2 hPa | 0 mm | - | 79 W/m² | - |
| 1778153256 | 7.22° C | 82% | 1012.2 hPa | 0 mm | - | 63 W/m² | - |
| 1778152952 | 7.22° C | 82% | 1012.1 hPa | 0 mm | - | 71 W/m² | - |
| 1778152650 | 6.67° C | 83% | 1012 hPa | 0 mm | - | 70 W/m² | - |
| 1778152347 | 6.67° C | 84% | 1012.2 hPa | 0 mm | - | 47 W/m² | - |
| 1778152043 | 6.67° C | 85% | 1012.1 hPa | 0 mm | - | 37 W/m² | - |
| 1778151740 | 6.11° C | 85% | 1012 hPa | 0 mm | - | 34 W/m² | - |
| 1778151437 | 6.11° C | 86% | 1012.1 hPa | 0 mm | - | 30 W/m² | - |
| 1778151132 | 6.11° C | 86% | 1011.5 hPa | 0 mm | - | 25 W/m² | - |
| 1778150830 | 6.11° C | 86% | 1011.6 hPa | 0 mm | - | 18 W/m² | - |
| 1778150526 | 6.11° C | 86% | 1011.5 hPa | 0 mm | - | 15 W/m² | - |
| 1778150222 | 6.11° C | 86% | 1011.3 hPa | 0 mm | - | 12 W/m² | - |
| 1778149919 | 6.11° C | 86% | 1011.4 hPa | 0 mm | - | 9 W/m² | - |
| 1778149615 | 6.11° C | 86% | 1011.4 hPa | 0 mm | - | 8 W/m² | - |
| 1778149312 | 6.11° C | 86% | 1011.4 hPa | 0 mm | - | 4 W/m² | - |
| 1778149007 | 6.11° C | 86% | 1011.5 hPa | 0 mm | - | 2 W/m² | - |
| 1778148703 | 6.11° C | 86% | 1011.7 hPa | 0 mm | - | 1 W/m² | - |
| 1778148401 | 6.11° C | 86% | 1011.4 hPa | 0 mm | - | 1 W/m² | - |
| 1778148099 | 6.11° C | 86% | 1011.4 hPa | 0 mm | - | 0 W/m² | - |
| 1778147797 | 6.11° C | 86% | 1011.5 hPa | 0 mm | - | 0 W/m² | - |
| 1778147493 | 6.11° C | 87% | 1011.4 hPa | 0 mm | - | 0 W/m² | - |
| 1778147190 | 6.11° C | 87% | 1011.3 hPa | 0 mm | - | 0 W/m² | - |
* Rain latest hour (hover to see other rain measurements)
** Current wind speed in m/s (hover to see current wind gust speed)